Location: Sternwarte Stuttgart
(48.7670°N, 9.1830°E)
Time: 11:07:23
(UTC+01:00)

IDEFIX/ARIANE 42P - Pass Details

Date: 24 January 2019
Orbit: 786 x 802 km, 98.3° (Epoch: 17 February)

Event Time Altitude Azimuth Distance (km) Brightness Sun altitude
Rises 05:53:34 0° 7° (N) 3,326 5.8 -21.1°
Reaches altitude 10° 05:56:06 10° 358° (N) 2,392 5.0 -20.7°
Enters shadow 05:59:39 29° 320° (NW) 1,429 3.5 -20.2°
